Regional Weather Roundup
Issued by NWS Sterling, VA

Home | Current Version | Previous Version | Graphics & Text | Print | Product List | Glossary On
Versions: 1 2 3 4 5 6 7 8 9 10 11 12 13 14 15 16 17 18 19 20 21 22 23 24 25 26 27 28 29 30 31 32 33 34 35 36 37 38 39 40 41 42 43 44 45 46 47 48 49 50
000
ASUS41 KLWX 031310
RWRLWX

REGIONAL WEATHER ROUNDUP
NATIONAL WEATHER SERVICE BALTIMORE MD/WASHINGTON DC
900 AM EDT MON AUG 03 2015

Note: "FAIR" indicates few or no clouds below 12,000 feet
with no significant weather and/or obstructions to visibility.
 TC=TEMPERATURE CELSIUS

 * =Non NWS site. Station does not report precipitation (e.g. rain,
    snow, etc.), thunder, or fog.

DCZ001-MDZ009-015-VAZ040>042-051-053>054-031400-
WASHINGTON METRO

CITY           SKY/WX    TMP DP  RH WIND       PRES   REMARKS
WASHINGTON NAT MOSUNNY   80  63  55 S8        29.90R
DULLES         MOSUNNY   75  64  68 S8        29.89R
ANDREWS AFB    SUNNY     78  63  59 SW8       29.89R
QUANTICO       MOSUNNY   82  64  55 CALM      29.86R
COLLEGE PARK*  SUNNY     77  61  57 S3        29.89R
LEESBURG*      SUNNY     77  64  65 SW6       29.90S
MANASSAS*      SUNNY     73  66  78 SW6       29.89S
GAITHERSBURG*  SUNNY     75  63  64 W6        29.93R

$$

MDZ006>007-011-014-031400-
BALTIMORE METRO

CITY           SKY/WX    TMP DP  RH WIND       PRES   REMARKS
BWI AIRPORT    MOSUNNY   77  64  64 SW6       29.88R
MD SCIENCE CTR   N/A     79  62  56 MISG      29.88R
MARTIN STATE   SUNNY     79  66  65 SW8       29.89S
ANNAPOLIS      SUNNY     78  62  57 W9        29.88R
FORT MEADE*    SUNNY     72  66  83 S6        29.91S

$$

MDZ012-015-019>023-031400-
MARYLAND EASTERN SHORE

CITY           SKY/WX    TMP DP  RH WIND       PRES   REMARKS
OCEAN CITY     SUNNY     81  72  74 W7        29.91R
SALISBURY      SUNNY     79  72  79 SW5       29.90S
BAY BRIDGE AP*   N/A     77  63  61 SW7       29.89R
CAMBRIDGE*     SUNNY     79  70  73 SW3       29.88S
EASTON*        MOSUNNY   81  72  74 SW9       29.92S

$$

MDZ017>025-031400-
SOUTHERN MARYLAND

CITY           SKY/WX    TMP DP  RH WIND       PRES   REMARKS
PATUXENT RIVER MOSUNNY   78  69  73 SW10      29.89S
ST INIGOES     SUNNY     79  71  76 S7        29.89S
LEONARDTOWN*   SUNNY     79  66  65 CALM      29.91S

$$

MDZ003>005-031400-
NORTH CENTRAL MARYLAND

CITY           SKY/WX    TMP DP  RH WIND       PRES   REMARKS
FREDERICK*     MOSUNNY   73  66  78 S3        29.91S
HAGERSTOWN APT SUNNY     74  59  59 S7        29.88S
WESTMINSTER*   SUNNY     75  63  64 SW7       29.89F

$$

MDZ501>502-031400-
WESTERN MARYLAND

CITY           SKY/WX    TMP DP  RH WIND       PRES   REMARKS
OAKLAND*       SUNNY     64 N/A N/A W8        29.99S
CUMBERLAND*    SUNNY     70  63  78 SE5       29.93S

$$

VAZ025>031-031400-
SHENANDOAH VALLEY

CITY           SKY/WX    TMP DP  RH WIND       PRES   REMARKS
WINCHESTER*    SUNNY     77  59  53 SW8       29.90R
FRONT ROYAL*   FAIR      72  61  68 S3        29.89F
LURAY*         FAIR      73  61  64 SW6       29.93S
NEW MARKET*    FAIR      71  61  71 CALM      29.92S
STAUNTON*      MOSUNNY   73  61  65 CALM      29.96R
WAYNESBORO*    FAIR      72  60  67 NW5       29.97R

$$

WVZ021-048>050-054>055-031400-
EASTERN WEST VIRGINIA PANHANDLE

CITY           SKY/WX    TMP DP  RH WIND       PRES   REMARKS
MARTINSBURG    SUNNY     72  60  66 SW6       29.89S
PETERSBURG*    MOSUNNY   72  72 100 CALM      29.92S

$$

VAZ036>039-050-031400-
CENTRAL FOOTHILLS

CITY           SKY/WX    TMP DP  RH WIND       PRES   REMARKS
CHARLOTTESVILL SUNNY     74  62  66 N5        29.91R
CULPEPER*      MOSUNNY   72  64  77 SW3       29.91S
ORANGE*        SUNNY     77  64  65 CALM      29.93R
GORDONSVILLE*  FAIR      72  64  78 CALM      29.91R
WARRENTON*     FAIR      75  67  76 SW6       29.90R

$$

VAZ055>057-031400-
NORTH AND CENTRAL PIEDMONT

CITY           SKY/WX    TMP DP  RH WIND       PRES   REMARKS
FREDERICKSBRG* SUNNY     76  64  66 CALM      29.89R
STAFFORD*      PTSUNNY   73  63  72 CALM      29.94R

$$

NCZ024-NYZ072-PAZ021-071-VAZ022-071-031400-
OTHER REGIONAL OBSERVATIONS

CITY           SKY/WX    TMP DP  RH WIND       PRES   REMARKS
NEW YORK CITY  SUNNY     78  61  55 CALM      29.87F
PHILADELPHIA   MOSUNNY   79  65  62 SW13      29.87S
PITTSBURGH     CLOUDY    69  59  70 S12       29.80F
ROANOKE        MOSUNNY   74  60  61 NW6       29.99R
RICHMOND       MOSUNNY   78  68  71 S8        29.91R
RALEIGH        PTSUNNY   77  72  84 SW7       29.95R

$$

ANZ530>537-031400-
MARINE OBSERVATIONS

STATION/POSITION TIME  TEMP    WIND        PRES
                       AIR SEA DIR/SP/G
                 (UTC) (F)     (DEG/KT/KT) (MB)
THOMAS PT LIGHT  NOT AVBL
BALT KEY BRIDGE  1200   73     200/  7/  9 1011.3R
COVE POINT       1212   77     240/ 10/ 12 1012.6R
LEWISETTA        1200   77 83  230/  5/  7 1012.0R
SOLOMONS ISLAND  1200      82                N/A
PINEY POINT      1200          240/  8/ 10   N/A

$$




USA.gov is the U.S. government's official web portal to all federal, state and local government web resources and services.